| time (UTC) | temp C | wind direction | speed KPH | gust KPH | rain 1hr cm | rain 24hr cm | rain mn cm | humidity % | barometer mb |
| 20260507023603 | 11 | 132 | 1.6 | 3.2 | 0.00 | 0.00 | 0.00 | 80 | 1010.6 |
| 20260507022703 | 12 | 126 | 1.6 | 3.2 | 0.00 | 0.00 | 0.00 | 79 | 1010.6 |
| 20260507021803 | 12 | 132 | 1.6 | 4.8 | 0.00 | 0.00 | 0.00 | 79 | 1010.4 |
| 20260507020903 | 12 | 125 | 3.2 | 4.8 | 0.00 | 0.00 | 0.00 | 78 | 1010.7 |
| 20260507020003 | 12 | 126 | 1.6 | 3.2 | 0.00 | 0.00 | 0.00 | 78 | 1010.6 |
| 20260507015403 | 12 | 141 | 4.8 | 6.4 | 0.00 | 0.00 | 0.00 | 78 | 1010.5 |
| 20260507014503 | 12 | 145 | 6.4 | 9.7 | 0.00 | 0.00 | 0.00 | 78 | 1010.6 |
| 20260507013603 | 12 | 150 | 8.0 | 11.3 | 0.00 | 0.00 | 0.00 | 77 | 1010.7 |
| 20260507012703 | 12 | 160 | 4.8 | 11.3 | 0.00 | 0.00 | 0.00 | 76 | 1010.7 |
| 20260507012017 | 12 | 155 | 6.4 | 12.9 | 0.00 | 0.00 | 0.00 | 76 | 1010.7 |
| 20260507010903 | 12 | 156 | 8.0 | 12.9 | 0.00 | 0.00 | 0.00 | 77 | 1010.9 |
| 20260507010003 | 12 | 157 | 8.0 | 14.5 | 0.00 | 0.00 | 0.00 | 76 | 1010.7 |
| 20260507005403 | 12 | 155 | 6.4 | 14.5 | 0.00 | 0.00 | 0.00 | 76 | 1010.9 |
| 20260507004716 | 13 | 168 | 4.8 | 11.3 | 0.00 | 0.00 | 0.00 | 74 | 1010.9 |
| 20260507003603 | 13 | 194 | 8.0 | 14.5 | 0.00 | 0.00 | 0.00 | 74 | 1011.0 |
| 20260507002917 | 13 | 200 | 8.0 | 14.5 | 0.00 | 0.00 | 0.00 | 73 | 1011.0 |
| 20260507001803 | 13 | 160 | 4.8 | 11.3 | 0.00 | 0.00 | 0.00 | 74 | 1011.2 |
| 20260507000903 | 13 | 188 | 6.4 | 11.3 | 0.00 | 0.00 | 0.00 | 74 | 1011.5 |
| 20260507000009 | 13 | 173 | 6.4 | 11.3 | 0.00 | 0.00 | 0.00 | 74 | 1011.5 |
| 20260506235403 | 13 | 168 | 6.4 | 12.9 | 0.00 | 0.00 | 0.00 | 74 | 1011.5 |
| 20260506234503 | 13 | 161 | 6.4 | 11.3 | 0.00 | 0.00 | 0.00 | 73 | 1011.5 |
| 20260506233603 | 13 | 172 | 6.4 | 12.9 | 0.00 | 0.00 | 0.00 | 72 | 1011.5 |
| 20260506232917 | 14 | 186 | 6.4 | 12.9 | 0.00 | 0.00 | 0.00 | 71 | 1011.6 |
| 20260506231803 | 14 | 182 | 8.0 | 16.1 | 0.00 | 0.00 | 0.00 | 70 | 1011.5 |
| 20260506230903 | 14 | 184 | 8.0 | 14.5 | 0.00 | 0.00 | 0.00 | 69 | 1011.5 |
| 20260506230003 | 14 | 189 | 6.4 | 16.1 | 0.00 | 0.00 | 0.00 | 68 | 1011.4 |
| 20260506225618 | 14 | 184 | 8.0 | 16.1 | 0.00 | 0.00 | 0.00 | 67 | 1011.5 |
| 20260506224504 | 15 | 192 | 8.0 | 20.9 | 0.00 | 0.00 | 0.00 | 66 | 1011.4 |
| 20260506223603 | 15 | 180 | 6.4 | 16.1 | 0.00 | 0.00 | 0.00 | 64 | 1011.3 |
| 20260506222703 | 15 | 187 | 8.0 | 17.7 | 0.00 | 0.00 | 0.00 | 63 | 1011.2 |
| 20260506221803 | 15 | 198 | 9.7 | 22.5 | 0.00 | 0.00 | 0.00 | 62 | 1011.2 |
| 20260506220903 | 15 | 185 | 8.0 | 16.1 | 0.00 | 0.00 | 0.00 | 61 | 1011.0 |
| 20260506220003 | 15 | 165 | 8.0 | 16.1 | 0.00 | 0.00 | 0.00 | 60 | 1011.0 |
| 20260506215403 | 15 | 160 | 8.0 | 16.1 | 0.00 | 0.00 | 0.00 | 59 | 1011.4 |
| 20260506214717 | 16 | 171 | 6.4 | 14.5 | 0.00 | 0.00 | 0.00 | 57 | 1011.3 |
| 20260506213603 | 16 | 163 | 9.7 | 16.1 | 0.00 | 0.00 | 0.00 | 56 | 1011.2 |
| 20260506212703 | 16 | 161 | 9.7 | 29.0 | 0.00 | 0.00 | 0.00 | 51 | 1011.0 |
| 20260506211803 | 17 | 142 | 3.2 | 6.4 | 0.00 | 0.00 | 0.00 | 43 | 1010.4 |
| 20260506210903 | 19 | 182 | 3.2 | 4.8 | 0.00 | 0.00 | 0.00 | 37 | 1010.6 |
| 20260506210003 | 20 | 199 | 4.8 | 6.4 | 0.00 | 0.00 | 0.00 | 36 | 1010.3 |
| 20260506205403 | 20 | 201 | 4.8 | 6.4 | 0.00 | 0.00 | 0.00 | 36 | 1010.4 |
| 20260506204503 | 20 | 203 | 4.8 | 6.4 | 0.00 | 0.00 | 0.00 | 36 | 1010.1 |
| 20260506203603 | 20 | 204 | 4.8 | 6.4 | 0.00 | 0.00 | 0.00 | 36 | 1010.2 |
| 20260506202918 | 20 | 200 | 4.8 | 9.7 | 0.00 | 0.00 | 0.00 | 37 | 1010.0 |
| 20260506201803 | 20 | 186 | 3.2 | 6.4 | 0.00 | 0.00 | 0.00 | 37 | 1010.0 |
| 20260506200903 | 20 | 171 | 1.6 | 4.8 | 0.00 | 0.00 | 0.00 | 37 | 1010.1 |
| 20260506200003 | 20 | 190 | 3.2 | 4.8 | 0.00 | 0.00 | 0.00 | 36 | 1009.8 |
| 20260506195403 | 20 | 187 | 3.2 | 4.8 | 0.00 | 0.00 | 0.00 | 36 | 1009.9 |
| 20260506194503 | 20 | 169 | 1.6 | 4.8 | 0.00 | 0.00 | 0.00 | 36 | 1009.7 |
| 20260506193603 | 20 | 161 | 1.6 | 3.2 | 0.00 | 0.00 | 0.00 | 35 | 1009.7 |
| 20260506192703 | 20 | 173 | 3.2 | 3.2 | 0.00 | 0.00 | 0.00 | 34 | 1009.7 |
| 20260506191803 | 20 | 185 | 3.2 | 4.8 | 0.00 | 0.00 | 0.00 | 34 | 1009.6 |
| 20260506190903 | 20 | 188 | 3.2 | 6.4 | 0.00 | 0.00 | 0.00 | 33 | 1009.6 |
| 20260506190004 | 21 | 186 | 4.8 | 9.7 | 0.00 | 0.00 | 0.00 | 33 | 1009.6 |
| 20260506185403 | 21 | 183 | 3.2 | 9.7 | 0.00 | 0.00 | 0.00 | 33 | 1009.4 |
| 20260506184503 | 21 | 154 | 1.6 | 4.8 | 0.00 | 0.00 | 0.00 | 34 | 1009.4 |
| 20260506183603 | 22 | 164 | 1.6 | 4.8 | 0.00 | 0.00 | 0.00 | 34 | 1009.4 |
| 20260506182703 | 22 | 195 | 3.2 | 11.3 | 0.00 | 0.00 | 0.00 | 32 | 1009.4 |
| 20260506182017 | 22 | 198 | 4.8 | 11.3 | 0.00 | 0.00 | 0.00 | 32 | 1009.3 |
| 20260506180903 | 22 | 177 | 3.2 | 9.7 | 0.00 | 0.00 | 0.00 | 33 | 1009.5 |
| 20260506180218 | 22 | 192 | 3.2 | 9.7 | 0.00 | 0.00 | 0.00 | 34 | 1009.3 |
| 20260506175403 | 22 | 168 | 1.6 | 4.8 | 0.00 | 0.00 | 0.00 | 33 | 1009.6 |
| 20260506174717 | 22 | 189 | 3.2 | 9.7 | 0.00 | 0.00 | 0.00 | 33 | 1009.6 |
| 20260506173603 | 22 | 199 | 6.4 | 12.9 | 0.00 | 0.00 | 0.00 | 32 | 1009.5 |
| 20260506172703 | 22 | 178 | 4.8 | 11.3 | 0.00 | 0.00 | 0.00 | 32 | 1009.5 |
| 20260506172017 | 22 | 196 | 3.2 | 9.7 | 0.00 | 0.00 | 0.00 | 32 | 1009.6 |
| 20260506170903 | 21 | 215 | 4.8 | 12.9 | 0.00 | 0.00 | 0.00 | 31 | 1009.7 |
| 20260506170218 | 22 | 218 | 6.4 | 14.5 | 0.00 | 0.00 | 0.00 | 31 | 1009.9 |
| 20260506165403 | 22 | 214 | 4.8 | 11.3 | 0.00 | 0.00 | 0.00 | 30 | 1009.8 |
| 20260506164503 | 21 | 205 | 6.4 | 12.9 | 0.00 | 0.00 | 0.00 | 31 | 1009.9 |
| 20260506163603 | 21 | 172 | 6.4 | 14.5 | 0.00 | 0.00 | 0.00 | 31 | 1009.9 |
| 20260506162703 | 21 | 150 | 8.0 | 14.5 | 0.00 | 0.00 | 0.00 | 33 | 1009.7 |
| 20260506161803 | 22 | 171 | 6.4 | 12.9 | 0.00 | 0.00 | 0.00 | 33 | 1009.9 |
| 20260506160903 | 22 | 168 | 6.4 | 20.9 | 0.00 | 0.00 | 0.00 | 33 | 1010.2 |
| 20260506160003 | 21 | 182 | 4.8 | 12.9 | 0.00 | 0.00 | 0.00 | 32 | 1010.1 |
| 20260506155403 | 21 | 150 | 3.2 | 12.9 | 0.00 | 0.00 | 0.00 | 30 | 1010.2 |
| 20260506154503 | 21 | 168 | 3.2 | 9.7 | 0.00 | 0.00 | 0.00 | 30 | 1010.3 |
| 20260506153603 | 22 | 218 | 4.8 | 11.3 | 0.00 | 0.00 | 0.00 | 30 | 1010.2 |
| 20260506152703 | 22 | 235 | 6.4 | 14.5 | 0.00 | 0.00 | 0.00 | 29 | 1010.3 |
| 20260506151803 | 22 | 207 | 8.0 | 12.9 | 0.00 | 0.00 | 0.00 | 32 | 1010.4 |
| 20260506150903 | 22 | 186 | 3.2 | 12.9 | 0.00 | 0.00 | 0.00 | 31 | 1010.4 |
| 20260506150217 | 21 | 159 | 3.2 | 9.7 | 0.00 | 0.00 | 0.00 | 32 | 1010.6 |
| 20260506145616 | 21 | 160 | 4.8 | 14.5 | 0.00 | 0.00 | 0.00 | 32 | 1010.8 |
| 20260506144503 | 21 | 238 | 6.4 | 12.9 | 0.00 | 0.00 | 0.00 | 32 | 1010.9 |
| 20260506143603 | 21 | 222 | 6.4 | 16.1 | 0.00 | 0.00 | 0.00 | 33 | 1011.0 |
| 20260506142703 | 21 | 172 | 6.4 | 14.5 | 0.00 | 0.00 | 0.00 | 35 | 1011.2 |
| 20260506141803 | 20 | 141 | 4.8 | 12.9 | 0.00 | 0.00 | 0.00 | 34 | 1011.3 |
| 20260506141117 | 20 | 203 | 6.4 | 11.3 | 0.00 | 0.00 | 0.00 | 33 | 1011.5 |
| 20260506140004 | 21 | 249 | 3.2 | 9.7 | 0.00 | 0.00 | 0.00 | 34 | 1011.3 |
| 20260506135403 | 21 | 208 | 3.2 | 9.7 | 0.00 | 0.00 | 0.00 | 33 | 1011.4 |
| 20260506134503 | 20 | 124 | 3.2 | 9.7 | 0.00 | 0.00 | 0.00 | 35 | 1011.7 |
| 20260506133603 | 20 | 275 | 4.8 | 11.3 | 0.00 | 0.00 | 0.00 | 33 | 1011.6 |
| 20260506132703 | 21 | 294 | 4.8 | 11.3 | 0.00 | 0.00 | 0.00 | 34 | 1011.8 |
| 20260506131803 | 21 | 171 | 3.2 | 6.4 | 0.00 | 0.00 | 0.00 | 32 | 1012.0 |
| 20260506130903 | 20 | 142 | 3.2 | 6.4 | 0.00 | 0.00 | 0.00 | 33 | 1011.9 |
| 20260506130004 | 20 | 40 | 4.8 | 11.3 | 0.00 | 0.00 | 0.00 | 34 | 1011.9 |
| 20260506125403 | 20 | 11 | 4.8 | 11.3 | 0.00 | 0.00 | 0.00 | 34 | 1011.9 |
| 20260506124717 | 21 | 321 | 6.4 | 12.9 | 0.00 | 0.00 | 0.00 | 32 | 1011.8 |
| 20260506123603 | 21 | 327 | 4.8 | 12.9 | 0.00 | 0.00 | 0.00 | 34 | 1012.1 |
| 20260506122703 | 20 | 194 | 3.2 | 6.4 | 0.00 | 0.00 | 0.00 | 34 | 1011.9 |
| 20260506122017 | 20 | 320 | 4.8 | 12.9 | 0.00 | 0.00 | 0.00 | 32 | 1011.8 |
| 20260506120903 | 20 | 322 | 4.8 | 14.5 | 0.00 | 0.00 | 0.00 | 33 | 1011.9 |
| 20260506120004 | 20 | 342 | 4.8 | 12.9 | 0.00 | 0.00 | 0.00 | 33 | 1012.2 |
| 20260506115403 | 21 | 168 | 3.2 | 9.7 | 0.00 | 0.00 | 0.00 | 34 | 1012.2 |
| 20260506114717 | 20 | 270 | 4.8 | 12.9 | 0.00 | 0.00 | 0.00 | 35 | 1012.3 |
| 20260506113818 | 20 | 264 | 4.8 | 12.9 | 0.00 | 0.00 | 0.00 | 37 | 1012.5 |
| 20260506112917 | 19 | 297 | 4.8 | 14.5 | 0.00 | 0.00 | 0.00 | 36 | 1012.6 |
| 20260506111803 | 19 | 236 | 4.8 | 11.3 | 0.00 | 0.00 | 0.00 | 37 | 1012.6 |
| 20260506111118 | 19 | 289 | 6.4 | 14.5 | 0.00 | 0.00 | 0.00 | 37 | 1012.8 |
| 20260506110004 | 20 | 333 | 4.8 | 12.9 | 0.00 | 0.00 | 0.00 | 39 | 1012.7 |
| 20260506105403 | 19 | 322 | 6.4 | 12.9 | 0.00 | 0.00 | 0.00 | 38 | 1012.5 |
| 20260506104503 | 19 | 345 | 6.4 | 12.9 | 0.00 | 0.00 | 0.00 | 42 | 1013.1 |
| 20260506103603 | 19 | 330 | 6.4 | 14.5 | 0.00 | 0.00 | 0.00 | 41 | 1012.9 |
| 20260506102703 | 18 | 315 | 6.4 | 12.9 | 0.00 | 0.00 | 0.00 | 44 | 1012.9 |
| 20260506101803 | 18 | 330 | 8.0 | 16.1 | 0.00 | 0.00 | 0.00 | 47 | 1012.9 |
| 20260506100903 | 18 | 320 | 6.4 | 12.9 | 0.00 | 0.00 | 0.00 | 49 | 1012.8 |
| 20260506100004 | 17 | 325 | 6.4 | 14.5 | 0.00 | 0.00 | 0.00 | 50 | 1013.1 |
| 20260506095403 | 17 | 331 | 6.4 | 12.9 | 0.00 | 0.00 | 0.00 | 50 | 1013.1 |
| 20260506094718 | 17 | 322 | 8.0 | 14.5 | 0.00 | 0.00 | 0.00 | 53 | 1013.1 |
| 20260506093817 | 17 | 294 | 8.0 | 14.5 | 0.00 | 0.00 | 0.00 | 54 | 1013.2 |
| 20260506092703 | 16 | 304 | 8.0 | 12.9 | 0.00 | 0.00 | 0.00 | 57 | 1012.8 |
| 20260506091803 | 16 | 304 | 6.4 | 14.5 | 0.00 | 0.00 | 0.00 | 55 | 1013.0 |
| 20260506090903 | 16 | 317 | 4.8 | 11.3 | 0.00 | 0.00 | 0.00 | 56 | 1013.1 |
| 20260506090217 | 16 | 338 | 6.4 | 11.3 | 0.00 | 0.00 | 0.00 | 56 | 1013.2 |
| 20260506085403 | 15 | 326 | 4.8 | 12.9 | 0.00 | 0.00 | 0.00 | 57 | 1013.1 |
| 20260506084718 | 16 | 347 | 4.8 | 12.9 | 0.00 | 0.00 | 0.00 | 58 | 1013.0 |
| 20260506083603 | 15 | 325 | 6.4 | 11.3 | 0.00 | 0.00 | 0.00 | 62 | 1013.1 |
| 20260506082918 | 15 | 318 | 4.8 | 11.3 | 0.00 | 0.00 | 0.00 | 60 | 1013.1 |
| 20260506081803 | 15 | 281 | 4.8 | 9.7 | 0.00 | 0.00 | 0.00 | 59 | 1013.0 |
| 20260506080903 | 13 | 291 | 4.8 | 9.7 | 0.00 | 0.00 | 0.00 | 62 | 1013.1 |
| 20260506072703 | 13 | 15 | 3.2 | 6.4 | 0.00 | 0.00 | 0.00 | 67 | 1012.8 |
| 20260506072017 | 13 | 51 | 1.6 | 4.8 | 0.00 | 0.00 | 0.00 | 70 | 1012.9 |
| 20260506070903 | 13 | 68 | 1.6 | 4.8 | 0.00 | 0.00 | 0.00 | 72 | 1012.9 |
| 20260506061803 | 13 | 10 | 3.2 | 6.4 | 0.00 | 0.00 | 0.00 | 72 | 1013.0 |
| 20260506060903 | 13 | 336 | 3.2 | 4.8 | 0.00 | 0.00 | 0.00 | 72 | 1012.7 |
| 20260506050903 | 11 | 108 | 0.0 | 1.6 | 0.00 | 0.00 | 0.00 | 82 | 1012.5 |
| 20260506044503 | 11 | 108 | 1.6 | 3.2 | 0.00 | 0.00 | 0.00 | 82 | 1012.6 |
| 20260506043817 | 12 | 108 | 1.6 | 3.2 | 0.00 | 0.00 | 0.00 | 82 | 1012.7 |
| 20260506042703 | 11 | 108 | 1.6 | 3.2 | 0.00 | 0.00 | 0.00 | 83 | 1012.8 |
| 20260506042018 | 11 | 108 | 1.6 | 4.8 | 0.00 | 0.00 | 0.00 | 83 | 1012.8 |
| 20260506040903 | 11 | 108 | 1.6 | 3.2 | 0.00 | 0.00 | 0.00 | 84 | 1013.0 |
| 20260506040005 | 10 | 109 | 1.6 | 3.2 | 0.00 | 0.00 | 0.00 | 87 | 1012.6 |
| 20260506035403 | 10 | 110 | 1.6 | 3.2 | 0.00 | 0.00 | 0.00 | 88 | 1012.9 |
| 20260506034503 | 10 | 113 | 1.6 | 4.8 | 0.00 | 0.00 | 0.00 | 87 | 1012.9 |
| 20260506033603 | 10 | 120 | 3.2 | 4.8 | 0.00 | 0.00 | 0.00 | 88 | 1012.9 |
| 20260506032703 | 10 | 125 | 3.2 | 3.2 | 0.00 | 0.00 | 0.00 | 87 | 1013.0 |
| 20260506031803 | 10 | 130 | 3.2 | 3.2 | 0.00 | 0.00 | 0.00 | 86 | 1013.0 |
| 20260506031117 | 11 | 126 | 1.6 | 3.2 | 0.00 | 0.00 | 0.00 | 84 | 1012.9 |
| 20260506030003 | 11 | 130 | 1.6 | 3.2 | 0.00 | 0.00 | 0.00 | 85 | 1013.0 |
| 20260506025403 | 11 | 131 | 1.6 | 4.8 | 0.00 | 0.00 | 0.00 | 85 | 1012.9 |
| 20260506024503 | 11 | 125 | 1.6 | 4.8 | 0.00 | 0.00 | 0.00 | 85 | 1013.0 |